Location: Azenweiler
(47.8027°N, 9.4096°E)
Time: 17:13:59
(UTC+00:00)

COSMOS 2406 - Pass Details

Date: 10 December 2025
Orbit: 844 x 860 km, 71.0° (Epoch: 22 January)

Event Time Altitude Azimuth Distance (km) Brightness Sun altitude
Exits shadow 04:55:17 15° 225° (SW) 2,096 4.9 -20.0°
Maximum altitude 04:59:51 59° 302° (WNW) 973 3.2 -19.3°
Drops below altitude 10° 05:05:28 10° 22° (NNE) 2,476 5.7 -18.3°
Sets 05:07:59 0° 26° (NNE) 3,416 6.5 -17.9°
